Flag for China Weather past 2 weeks in Guangzhou, Guangdong, China

57 °F


Feels Like: 54 °F
Forecast: 49 / 67 °F
Wind: 15 mph from Northeast

Location: Canton Airport

Current Time: Nov 26, 2015 at 9:15:01 AM

Latest Report: Nov 26, 2015 at 8:30 AM

Visibility: 10 mi

Pressure: 30.24 "Hg

Humidity: 48%

Dew point: 37 °F

Location of GuangzhouLocation

Historic Weather in Guangzhou — Graph


Guangzhou temperature yesterday

Maximum temperature yesterday: 73 °F (at 12:00 AM)
Minimum temperature yesterday: 57 °F (at 10:30 PM)
Average temperature yesterday: 65 °F

Past Weeks' High & Low Weather Summary

High88 °F (Nov 18, 2:00 PM)100% (Nov 13, 11:00 AM)30.24 "Hg (Nov 13, 11:00 AM)
Low54 °F (Nov 26, 5:00 AM)51% (Nov 23, 1:00 PM)29.83 "Hg (Nov 16, 2:30 PM)
Average73 °F80%30.02 "Hg
* Reported Nov 11 8:00 AM — Nov 26 8:00 AM, Guangzhou, Weather by CustomWeather, © 2015

Note: Actual official high and low records may vary slightly from our data, if they occured in-between our weather recording intervals... More about our weather records


Guangzhou weather history for previous 24 hours

Time TempWeatherWind HumidityBarometerVisibility
8:00 AM
Thu, Nov 26
55 °FSunny.15 mph51%30.24 "Hg10 mi
7:00 AM54 °FSunny.15 mph54%30.21 "Hg10 mi
6:30 AM54 °FClear.10 mph54%30.21 "Hg10 mi
6:00 AM54 °FClear.8 mph54%30.21 "Hg10 mi
5:30 AM54 °FClear.6 mph58%30.18 "Hg10 mi
5:00 AM54 °FClear.8 mph54%30.18 "Hg10 mi
4:30 AM55 °FClear.15 mph51%30.18 "Hg10 mi
4:00 AM55 °FClear.13 mph51%30.18 "Hg10 mi
3:30 AM55 °FClear.10 mph55%30.18 "Hg10 mi
3:00 AM55 °FClear.13 mph55%30.18 "Hg10 mi
2:30 AM55 °FClear.15 mph59%30.18 "Hg10 mi
2:00 AM57 °FClear.20 mph55%30.21 "Hg10 mi
1:30 AM57 °FClear.17 mph59%30.21 "Hg10 mi
1:00 AM55 °FClear.15 mph63%30.21 "Hg10 mi
12:30 AM55 °FClear.15 mph67%30.21 "Hg10 mi
12:00 AM55 °FClear.17 mph67%30.21 "Hg10 mi
11:30 PM
Wed, Nov 25
57 °FClear.17 mph63%30.21 "Hg10 mi
11:00 PM57 °FClear.20 mph63%30.21 "Hg10 mi
10:30 PM57 °FClear.20 mph63%30.21 "Hg10 mi
10:00 PM59 °FClear.17 mph59%30.21 "Hg10 mi
9:30 PM59 °FClear.22 mph59%30.21 "Hg10 mi
9:00 PM59 °FClear.17 mph63%30.21 "Hg10 mi
8:30 PM59 °FClear.17 mph63%30.21 "Hg10 mi
8:00 PM59 °FClear.17 mph63%30.18 "Hg10 mi
7:30 PM59 °FClear.17 mph68%30.18 "Hg10 mi
7:00 PM61 °FClear.17 mph63%30.15 "Hg10 mi
6:30 PM61 °FClear.20 mph63%30.15 "Hg10 mi
6:00 PM61 °FPassing clouds.17 mph63%30.15 "HgN/A
5:30 PM61 °FPartly sunny.15 mph63%30.12 "HgN/A
5:00 PM63 °FPartly sunny.20 mph59%30.12 "HgN/A
4:30 PM63 °FPartly sunny.17 mph59%30.12 "HgN/A
4:00 PM63 °FPartly sunny.24 mph59%30.09 "HgN/A
3:30 PM66 °FScattered clouds.20 mph56%30.09 "HgN/A
3:00 PM68 °FPassing clouds.20 mph53%30.07 "HgN/A
2:30 PM70 °FSunny.17 mph53%30.07 "Hg10 mi
2:00 PM70 °FSunny.17 mph53%30.07 "Hg10 mi
1:30 PM70 °FPassing clouds.15 mph57%30.07 "HgN/A
1:00 PM70 °FPassing clouds.13 mph57%30.09 "HgN/A
12:30 PM70 °FSunny.13 mph53%30.09 "Hg10 mi
12:00 PM70 °FPassing clouds.13 mph53%30.12 "HgN/A
11:30 AM70 °FPassing clouds.13 mph57%30.12 "HgN/A
11:00 AM68 °FPassing clouds.15 mph56%30.12 "HgN/A
10:30 AM68 °FPassing clouds.15 mph56%30.15 "HgN/A
10:00 AM66 °FPassing clouds.15 mph60%30.15 "HgN/A
9:30 AM64 °FPassing clouds.10 mph64%30.15 "HgN/A
9:00 AM61 °FPassing clouds.13 mph68%30.15 "HgN/A
Weather by CustomWeather, © 2015

See weather overviewHow to use our weather pages